User: anonymous   Login
Location: Unspecified
(0.0000°N, 0.0000°E)
Time: 17:07:59
(UTC+00:00)
Language:

Alouette 1 - Orbit

View from above orbital plane
View from above orbital plane
View from above satellite
View from above satellite

Ground track
Ground track

The orbit data is extracted from the following two-line orbital elements,

1   424U 62049A   18347.77688242 +.00000062 +00000-0 +60304-4 0  9993
2   424 080.4682 088.7041 0023802 111.0940 358.1865 13.69118006805586
Epoch (UTC): 13 December 2018 18:38:42
Eccentricity: 0.0023802
inclination: 80.4682°
perigee height: 985 km
apogee height: 1020 km
right ascension of ascending node: 88.7041°
argument of perigee: 111.0940°
revolutions per day: 13.69118006
mean anomaly at epoch: 358.1865°
orbit number at epoch: 80558

The dashed part of the orbit path shows where the satellite is in the earth's shadow,  

DLR